Find Starlink 5984

NORAD ID: 56329 Int'l Des: 2023-058 Owner: SPXS Country: US Constellation: starlink operational
LEOCIRCULARRETROGRADESSO

当前视图

正在加载3D地球...

About Starlink 5984

Starlink 5984 (NORAD 56329) is a starlink constellation satellite (v1.5) launched Apr 27, 2023 by SPXS of US. It operates in LEO, CIRCULAR, RETROGRADE, SSO orbit with a mass of 300.00 kg.

即将过境

Passes for default location (London). Set your location on the main map for personalized predictions.

高度历史

Loading altitude history...

两行轨道根数

1 56329U 23058N 26263.92955151 .00000835 00000-0 28186-4 0 9994
2 56329 97.2842 260.7186 0001349 91.3413 268.7984 15.33437288187708
Epoch: Sep 20, 2026 • Age: 22 hours

当前状态

高度 468.6 km
远地点 / 近地点 N/A
速度 7.63 km/s
星下点 0.07°N, 42.64°W
发射日期 Apr 27, 2023
运行时间 3.4 years
类型 internet

技术详情

分类 Payload
质量 300.00 kg
干质量 260.00 kg
长度 0.20 m
跨度 9.00 m
形状 ? Box + pan
制造商 SPXS
平台类型 Starlink
阶段状态 In Orbit
所有者/国家 SPXS/US

Most Searched